Location: Cheyres
(46.8153°N, 6.7877°E)
Time: 11:54:10
(UTC+00:00)

Gbstr 26 Del rocket - Pass Details

Date: 25 September 2021
Orbit: 492 x 1263 km, 51.8° (Epoch: 18 October)

Event Time Altitude Azimuth Distance (km) Brightness Sun altitude
Exits shadow 04:36:30 - 277° (W) 3,166 6.0 -8.9°
Reaches altitude 10° 04:36:52 10° 275° (W) 3,086 6.0 -8.8°
Maximum altitude 04:41:11 16° 240° (WSW) 2,496 5.6 -8.1°
Drops below altitude 10° 04:45:10 10° 204° (SSW) 2,793 6.1 -7.4°
Sets 04:48:39 0° 184° (S) 3,583 6.9 -6.8°
